| time (UTC) | temp F | wind direction | speed knots | gust knots | rain 1hr in | rain 24hr in | rain mn in | humidity % | barometer mb |
| 20260507094502 | 40 | 360 | 7.0 | 12.2 | 0.00 | 0.00 | 0.00 | 88 | 1015.5 |
| 20260507093032 | 39 | 360 | 10.4 | 13.9 | 0.00 | 0.00 | 0.00 | 88 | 1015.4 |
| 20260507091609 | 40 | 360 | 10.4 | 16.5 | 0.00 | 0.00 | 0.00 | 88 | 1015.4 |
| 20260507090019 | 40 | 360 | 13.9 | 18.2 | 0.00 | 0.00 | 0.00 | 86 | 1015.4 |
| 20260507084601 | 40 | 360 | 13.0 | 17.4 | 0.00 | 0.00 | 0.00 | 85 | 1015.4 |
| 20260507083104 | 40 | 360 | 11.3 | 17.4 | 0.00 | 0.00 | 0.00 | 87 | 1015.4 |
| 20260507081610 | 41 | 360 | 9.6 | 17.4 | 0.00 | 0.00 | 0.00 | 85 | 1015.2 |
| 20260507080135 | 41 | 360 | 12.2 | 17.4 | 0.00 | 0.00 | 0.00 | 84 | 1014.9 |
| 20260507074604 | 40 | 360 | 11.3 | 17.4 | 0.00 | 0.00 | 0.00 | 85 | 1015.0 |
| 20260507073120 | 41 | 360 | 7.8 | 13.9 | 0.00 | 0.00 | 0.00 | 88 | 1014.9 |
| 20260507071501 | 40 | 360 | 9.6 | 15.6 | 0.00 | 0.00 | 0.00 | 88 | 1014.6 |
| 20260507064601 | 41 | 360 | 12.2 | 16.5 | 0.00 | 0.00 | 0.00 | 84 | 1014.3 |
| 20260507063105 | 41 | 360 | 14.8 | 17.4 | 0.00 | 0.00 | 0.00 | 84 | 1014.3 |
| 20260507061600 | 40 | 360 | 12.2 | 13.9 | 0.00 | 0.00 | 0.00 | 83 | 1014.2 |
| 20260507060114 | 40 | 360 | 10.4 | 13.0 | 0.00 | 0.00 | 0.00 | 83 | 1014.1 |
| 20260507054511 | 40 | 360 | 9.6 | 13.0 | 0.00 | 0.00 | 0.00 | 83 | 1014.0 |
| 20260507053100 | 39 | 360 | 9.6 | 12.2 | 0.00 | 0.00 | 0.00 | 82 | 1013.9 |
| 20260507051601 | 39 | 360 | 7.8 | 11.3 | 0.00 | 0.00 | 0.00 | 83 | 1013.9 |
| 20260507050100 | 38 | 190 | 7.8 | 9.6 | 0.00 | 0.00 | 0.00 | 84 | 1013.9 |
| 20260507044624 | 38 | 360 | 6.1 | 8.7 | 0.00 | 0.00 | 0.00 | 84 | 1013.9 |
| 20260507043111 | 37 | 187 | 7.0 | 9.6 | 0.00 | 0.00 | 0.00 | 84 | 1013.9 |
| 20260507041607 | 37 | 181 | 6.1 | 8.7 | 0.00 | 0.00 | 0.00 | 85 | 1013.8 |
| 20260507040120 | 36 | 186 | 6.1 | 8.7 | 0.00 | 0.00 | 0.00 | 85 | 1013.8 |
| 20260507034606 | 36 | 175 | 4.3 | 6.1 | 0.00 | 0.00 | 0.00 | 86 | 1013.7 |
| 20260507033112 | 36 | 178 | 2.6 | 5.2 | 0.00 | 0.00 | 0.00 | 87 | 1013.6 |
| 20260507031606 | 36 | 175 | 4.3 | 6.1 | 0.00 | 0.00 | 0.00 | 87 | 1013.5 |
| 20260507030012 | 36 | 117 | 3.5 | 5.2 | 0.00 | 0.00 | 0.00 | 87 | 1013.3 |
| 20260507024600 | 37 | 183 | 7.8 | 11.3 | 0.00 | 0.00 | 0.00 | 88 | 1013.3 |
| 20260507023001 | 36 | 176 | 10.4 | 13.9 | 0.00 | 0.00 | 0.00 | 90 | 1013.4 |
| 20260507021504 | 35 | 185 | 5.2 | 9.6 | 0.00 | 0.00 | 0.00 | 89 | 1013.3 |
| 20260507020013 | 35 | 178 | 5.2 | 7.8 | 0.00 | 0.00 | 0.00 | 89 | 1013.2 |
| 20260507014609 | 34 | 178 | 6.1 | 7.8 | 0.00 | 0.00 | 0.00 | 88 | 1013.2 |
| 20260507013101 | 34 | 360 | 4.3 | 7.0 | 0.00 | 0.00 | 0.00 | 87 | 1013.0 |
| 20260507011605 | 35 | 174 | 7.0 | 8.7 | 0.00 | 0.00 | 0.00 | 86 | 1013.0 |
| 20260507010013 | 36 | 360 | 4.3 | 7.8 | 0.00 | 0.00 | 0.00 | 85 | 1012.9 |
| 20260507004601 | 39 | 174 | 6.1 | 11.3 | 0.00 | 0.00 | 0.00 | 84 | 1012.9 |
| 20260507003003 | 40 | 183 | 9.6 | 14.8 | 0.00 | 0.00 | 0.00 | 85 | 1012.7 |
| 20260507001617 | 41 | 360 | 12.2 | 14.8 | 0.00 | 0.00 | 0.00 | 85 | 1012.7 |
| 20260507000002 | 41 | 360 | 10.4 | 14.8 | 0.00 | 0.00 | 0.00 | 85 | 1012.7 |
| 20260506234512 | 41 | 360 | 13.0 | 17.4 | 0.00 | 0.00 | 0.00 | 86 | 1012.6 |
| 20260506231601 | 41 | 360 | 14.8 | 19.1 | 0.00 | 0.00 | 0.00 | 85 | 1012.5 |
| 20260506224602 | 41 | 360 | 13.9 | 19.1 | 0.00 | 0.00 | 0.00 | 86 | 1012.3 |
| 20260506223101 | 40 | 360 | 13.9 | 18.2 | 0.00 | 0.00 | 0.00 | 86 | 1012.2 |
| 20260506221602 | 40 | 360 | 14.8 | 17.4 | 0.00 | 0.00 | 0.00 | 85 | 1012.1 |
| 20260506220109 | 41 | 217 | 13.9 | 16.5 | 0.00 | 0.00 | 0.00 | 84 | 1012.0 |
| 20260506214602 | 41 | 360 | 13.0 | 17.4 | 0.00 | 0.00 | 0.00 | 83 | 1012.0 |
| 20260506213104 | 41 | 215 | 12.2 | 14.8 | 0.00 | 0.00 | 0.00 | 83 | 1011.9 |
| 20260506211501 | 41 | 217 | 11.3 | 14.8 | 0.00 | 0.00 | 0.00 | 83 | 1011.8 |
| 20260506210121 | 41 | 360 | 11.3 | 15.6 | 0.00 | 0.00 | 0.00 | 82 | 1011.8 |
| 20260506204513 | 41 | 360 | 13.0 | 17.4 | 0.00 | 0.00 | 0.00 | 81 | 1011.9 |
| 20260506203012 | 42 | 360 | 12.2 | 16.5 | 0.00 | 0.00 | 0.00 | 81 | 1011.8 |
| 20260506201601 | 42 | 221 | 14.8 | 19.1 | 0.00 | 0.00 | 0.00 | 79 | 1011.7 |
| 20260506200001 | 42 | 360 | 13.0 | 18.2 | 0.00 | 0.00 | 0.00 | 80 | 1011.7 |
| 20260506194512 | 42 | 360 | 12.2 | 15.6 | 0.00 | 0.00 | 0.00 | 80 | 1011.6 |
| 20260506193104 | 42 | 360 | 14.8 | 18.2 | 0.00 | 0.00 | 0.00 | 78 | 1011.4 |
| 20260506191606 | 42 | 360 | 14.8 | 18.2 | 0.00 | 0.00 | 0.00 | 80 | 1011.4 |
| 20260506190001 | 42 | 360 | 15.6 | 19.1 | 0.00 | 0.00 | 0.00 | 80 | 1011.3 |
| 20260506184603 | 42 | 360 | 14.8 | 17.4 | 0.00 | 0.00 | 0.00 | 81 | 1011.2 |
| 20260506183112 | 42 | 360 | 14.8 | 19.1 | 0.00 | 0.00 | 0.00 | 82 | 1011.1 |
| 20260506181604 | 41 | 360 | 16.5 | 20.0 | 0.00 | 0.00 | 0.00 | 82 | 1011.0 |
| 20260506180003 | 42 | 360 | 13.9 | 17.4 | 0.00 | 0.00 | 0.00 | 83 | 1011.0 |
| 20260506174502 | 42 | 217 | 13.9 | 18.2 | 0.00 | 0.00 | 0.00 | 81 | 1010.9 |
| 20260506173002 | 42 | 360 | 13.9 | 19.1 | 0.00 | 0.00 | 0.00 | 80 | 1010.8 |
| 20260506171506 | 42 | 360 | 15.6 | 19.1 | 0.00 | 0.00 | 0.00 | 81 | 1010.7 |
| 20260506170001 | 42 | 360 | 15.6 | 19.1 | 0.00 | 0.00 | 0.00 | 82 | 1010.6 |
| 20260506164514 | 41 | 360 | 14.8 | 19.1 | 0.00 | 0.00 | 0.00 | 82 | 1010.5 |
| 20260506163003 | 41 | 360 | 16.5 | 20.0 | 0.00 | 0.00 | 0.00 | 84 | 1010.5 |
| 20260506161515 | 41 | 360 | 17.4 | 20.0 | 0.00 | 0.00 | 0.00 | 84 | 1010.5 |
| 20260506160110 | 41 | 360 | 15.6 | 19.1 | 0.00 | 0.00 | 0.00 | 84 | 1010.4 |
| 20260506154527 | 41 | 360 | 16.5 | 21.7 | 0.00 | 0.00 | 0.00 | 84 | 1010.4 |
| 20260506153011 | 41 | 360 | 15.6 | 21.7 | 0.00 | 0.00 | 0.00 | 83 | 1010.2 |
| 20260506151514 | 41 | 360 | 15.6 | 19.1 | 0.00 | 0.00 | 0.00 | 83 | 1010.2 |
| 20260506150004 | 41 | 360 | 13.9 | 17.4 | 0.00 | 0.00 | 0.00 | 82 | 1010.3 |
| 20260506144502 | 41 | 360 | 15.6 | 18.2 | 0.00 | 0.00 | 0.00 | 81 | 1010.3 |
| 20260506143102 | 41 | 360 | 15.6 | 19.1 | 0.00 | 0.00 | 0.00 | 80 | 1010.2 |
| 20260506141502 | 41 | 360 | 14.8 | 19.1 | 0.00 | 0.00 | 0.00 | 80 | 1010.2 |
| 20260506140019 | 41 | 360 | 10.4 | 14.8 | 0.00 | 0.00 | 0.00 | 82 | 1010.1 |
| 20260506134602 | 41 | 360 | 11.3 | 15.6 | 0.00 | 0.00 | 0.00 | 82 | 1010.2 |
| 20260506133103 | 41 | 360 | 15.6 | 18.2 | 0.00 | 0.00 | 0.00 | 80 | 1009.9 |
| 20260506131502 | 40 | 360 | 13.0 | 17.4 | 0.00 | 0.00 | 0.00 | 82 | 1009.9 |
| 20260506130103 | 40 | 360 | 13.9 | 19.1 | 0.00 | 0.00 | 0.00 | 83 | 1009.8 |
| 20260506124503 | 40 | 360 | 16.5 | 20.0 | 0.00 | 0.00 | 0.00 | 83 | 1009.7 |
| 20260506123007 | 40 | 360 | 13.9 | 18.2 | 0.00 | 0.00 | 0.00 | 84 | 1009.6 |
| 20260506121502 | 39 | 360 | 13.9 | 19.1 | 0.00 | 0.00 | 0.00 | 85 | 1009.6 |
| 20260506120003 | 39 | 360 | 15.6 | 20.0 | 0.00 | 0.00 | 0.00 | 84 | 1009.3 |
| 20260506114602 | 39 | 360 | 16.5 | 19.1 | 0.00 | 0.00 | 0.00 | 84 | 1009.3 |
| 20260506113012 | 39 | 360 | 14.8 | 18.2 | 0.00 | 0.00 | 0.00 | 85 | 1009.1 |
| 20260506111525 | 39 | 360 | 16.5 | 20.0 | 0.00 | 0.00 | 0.00 | 85 | 1008.9 |
| 20260506110013 | 39 | 360 | 15.6 | 20.0 | 0.00 | 0.00 | 0.00 | 85 | 1008.7 |
| 20260506104502 | 39 | 360 | 15.6 | 20.0 | 0.00 | 0.00 | 0.00 | 84 | 1008.5 |
| 20260506103106 | 39 | 360 | 17.4 | 21.7 | 0.00 | 0.00 | 0.00 | 83 | 1008.4 |
| 20260506101502 | 39 | 360 | 15.6 | 20.0 | 0.00 | 0.00 | 0.00 | 83 | 1008.2 |